W0AVQ Weather Reports


time (UTC)temp
F
wind
direction
speed
knots
gust
knots
rain 1hr
in
rain 24hr
in
rain mn
in
humidity
%
barometer
mb
20260906134509 82 29 0.0 0.0 0.00 0.00 0.00 88 1016.4
20260906134008 83 288 0.0 0.0 0.00 0.00 0.00 88 1016.2
20260906133504 83 189 0.0 0.0 0.00 0.00 0.00 89 1016.2
20260906133000 82 100 0.0 0.0 0.00 0.00 0.00 89 1016.3
20260906132454 81 40 0.0 0.0 0.00 0.00 0.00 91 1016.3
20260906131950 81 317 0.0 0.0 0.00 0.00 0.00 91 1016.4
20260906131445 80 291 0.0 0.0 0.00 0.00 0.00 93 1016.2
20260906130941 80 42 0.0 0.0 0.00 0.00 0.00 95 1016.2
20260906130440 80 273 0.0 0.0 0.00 0.00 0.00 95 1016.1
20260906125935 79 268 0.0 0.0 0.00 0.00 0.00 96 1016.2
20260906125431 79 333 0.0 0.0 0.00 0.00 0.00 96 1016.2
20260906124926 79 350 0.0 0.0 0.00 0.00 0.00 96 1016.2
20260906124422 79 275 0.0 0.0 0.00 0.00 0.00 97 1016.1
20260906123916 78 285 0.0 0.0 0.00 0.00 0.00 98 1016.1
20260906123416 78 8 0.0 0.0 0.00 0.00 0.00 98 1016.0
20260906122916 78 255 0.0 0.0 0.00 0.00 0.00 99 1016.2
20260906122411 78 336 0.0 0.0 0.00 0.00 0.00 99 1016.0
20260906121908 78 279 0.0 0.0 0.00 0.00 0.00 99 1016.0
20260906121403 77 342 0.0 0.0 0.00 0.00 0.00 99 1016.0
20260906120859 77 75 0.0 0.0 0.00 0.00 0.00 99 1015.9
20260906120355 77 267 0.0 0.0 0.00 0.00 0.00 99 1015.7
20260906115851 77 307 0.0 0.0 0.00 0.00 0.00 99 1015.7
20260906115346 77 266 0.0 0.0 0.00 0.00 0.00 99 1015.4
20260906114845 77 278 0.0 0.0 0.00 0.00 0.00 99 1015.5
20260906114340 77 272 0.0 0.0 0.00 0.00 0.00 99 1015.3
20260906113835 77 265 0.0 0.0 0.00 0.00 0.00 99 1015.5
20260906113334 77 256 0.0 0.0 0.00 0.00 0.00 99 1015.2
20260906112830 77 262 0.0 0.0 0.00 0.00 0.00 99 1015.1
20260906112326 77 265 0.0 0.0 0.00 0.00 0.00 99 1015.3
20260906111826 77 253 0.0 0.0 0.00 0.00 0.00 99 1015.2
20260906111320 77 251 0.0 0.0 0.00 0.00 0.00 99 1015.2
20260906110815 77 272 0.0 0.0 0.00 0.00 0.00 99 1015.2
20260906110311 77 287 0.0 0.0 0.00 0.00 0.00 98 1015.3
20260906105810 77 319 0.0 0.0 0.00 0.00 0.00 99 1015.1
20260906105306 77 352 0.0 0.0 0.00 0.00 0.00 99 1014.9
20260906104801 77 253 0.0 0.0 0.00 0.00 0.00 98 1015.0
20260906104300 77 260 0.0 0.0 0.00 0.00 0.00 98 1014.7
20260906103758 77 251 0.0 0.0 0.00 0.00 0.00 98 1014.8
20260906103257 77 300 0.0 0.0 0.00 0.00 0.00 98 1014.8
20260906102754 77 257 0.0 0.0 0.00 0.00 0.00 98 1014.8
20260906102252 77 272 0.0 0.0 0.00 0.00 0.00 98 1014.9
20260906101748 77 282 0.0 0.0 0.00 0.00 0.00 98 1014.4
20260906101242 77 256 0.0 0.0 0.00 0.00 0.00 98 1014.4
20260906100738 77 336 0.0 0.0 0.00 0.00 0.00 98 1014.4
20260906100237 77 247 0.0 0.0 0.00 0.00 0.00 98 1014.5
20260906095733 77 253 0.0 0.0 0.00 0.00 0.00 98 1014.3
20260906095228 77 251 0.0 0.0 0.00 0.00 0.00 98 1014.5
20260906094727 76 247 0.0 0.0 0.00 0.00 0.00 98 1014.2
20260906094222 76 265 0.0 0.0 0.00 0.00 0.00 98 1014.1
20260906093718 76 266 0.0 0.0 0.00 0.00 0.00 99 1014.0
20260906093208 76 262 0.0 0.0 0.00 0.00 0.00 99 1014.0
20260906092703 76 321 0.0 0.0 0.00 0.00 0.00 99 1014.2
20260906092202 75 255 0.0 0.0 0.00 0.00 0.00 99 1014.1
20260906091659 75 262 0.0 0.0 0.00 0.00 0.00 99 1014.1
20260906091155 75 251 0.0 0.0 0.00 0.00 0.00 99 1014.3
20260906090651 75 247 0.0 0.0 0.00 0.00 0.00 99 1014.3
20260906090150 75 268 0.0 0.0 0.00 0.00 0.00 99 1014.0
20260906085649 75 268 0.0 0.0 0.00 0.00 0.00 99 1014.0
20260906085143 75 257 0.0 0.0 0.00 0.00 0.00 99 1014.1
20260906084638 75 270 0.0 0.0 0.00 0.00 0.00 99 1014.0
20260906084137 75 254 0.0 0.0 0.00 0.00 0.00 99 1014.1
20260906083632 75 254 0.0 0.0 0.00 0.00 0.00 99 1014.0
20260906083127 75 253 0.0 0.0 0.00 0.00 0.00 99 1014.1
20260906082623 75 253 0.0 0.0 0.00 0.00 0.00 99 1014.1
20260906082118 75 253 0.0 0.0 0.00 0.00 0.00 99 1014.1
20260906081614 75 253 0.0 0.0 0.00 0.00 0.00 99 1014.0
20260906081109 75 253 0.0 0.0 0.00 0.00 0.00 99 1014.0
20260906080605 75 224 0.0 0.0 0.00 0.00 0.00 99 1014.0
20260906075555 75 248 0.0 0.0 0.00 0.00 0.00 99 1014.0
20260906075050 75 257 0.0 0.0 0.00 0.00 0.00 99 1014.0
20260906074545 75 257 0.0 0.0 0.00 0.00 0.00 99 1014.1
20260906074043 75 257 0.0 0.0 0.00 0.00 0.00 99 1014.1
20260906073538 75 258 0.0 0.0 0.00 0.00 0.00 99 1014.2
20260906073035 76 258 0.0 0.0 0.00 0.00 0.00 99 1014.1
20260906072529 76 258 0.0 0.0 0.00 0.00 0.00 99 1014.2
20260906072026 76 258 0.0 0.0 0.00 0.00 0.00 99 1014.4
20260906071521 76 253 0.0 0.0 0.00 0.00 0.00 99 1014.2
20260906071016 76 253 0.0 0.0 0.00 0.00 0.00 99 1014.2
20260906070513 76 254 0.0 0.0 0.00 0.00 0.00 99 1014.2
20260906070008 76 254 0.0 0.0 0.00 0.00 0.00 99 1014.2
20260906065502 76 254 0.0 0.0 0.00 0.00 0.00 99 1014.2
20260906064957 76 254 0.0 0.0 0.00 0.00 0.00 99 1014.3
20260906064453 76 253 0.0 0.0 0.00 0.00 0.00 99 1014.6
20260906063948 76 262 0.0 0.0 0.00 0.00 0.00 99 1014.6
20260906063444 76 263 0.0 0.0 0.00 0.00 0.00 99 1014.5
20260906062944 76 256 0.0 0.0 0.00 0.00 0.00 99 1014.3
20260906062439 76 255 0.0 0.0 0.00 0.00 0.00 99 1014.6
20260906061934 76 255 0.0 0.0 0.00 0.00 0.00 99 1014.4
20260906061430 76 255 0.0 0.0 0.00 0.00 0.00 99 1014.6
20260906060930 76 256 0.0 0.0 0.00 0.00 0.00 99 1014.6
20260906060427 76 256 0.0 0.0 0.00 0.00 0.00 99 1014.7
20260906055923 76 256 0.0 0.0 0.00 0.00 0.00 99 1014.5
20260906055419 76 250 0.0 0.0 0.00 0.00 0.00 99 1014.5
20260906054914 76 249 0.0 0.0 0.00 0.00 0.00 99 1014.8
20260906054409 76 251 0.0 0.0 0.00 0.00 0.00 99 1014.5
20260906053905 76 260 0.0 0.0 0.00 0.00 0.00 99 1014.7
20260906053401 76 257 0.0 0.0 0.00 0.00 0.00 99 1014.6
20260906052856 76 257 0.0 0.0 0.00 0.00 0.00 99 1014.7
20260906052352 76 257 0.0 0.0 0.00 0.00 0.00 99 1014.9
20260906051849 76 257 0.0 0.0 0.00 0.00 0.00 98 1014.8
20260906051348 76 257 0.0 0.0 0.00 0.00 0.00 98 1014.7
20260906050844 76 264 0.0 0.0 0.00 0.00 0.00 98 1014.9
20260906050339 76 264 0.0 0.0 0.00 0.00 0.00 98 1014.7
20260906045838 76 264 0.0 0.0 0.00 0.00 0.00 98 1014.6
20260906045332 76 264 0.0 0.0 0.00 0.00 0.00 98 1014.7
20260906044829 76 264 0.0 0.0 0.00 0.00 0.00 97 1014.6
20260906044323 76 264 0.0 0.0 0.00 0.00 0.00 97 1014.7
20260906043819 77 264 0.0 0.0 0.00 0.00 0.00 97 1014.7
20260906043314 77 264 0.0 0.0 0.00 0.00 0.00 97 1014.9
20260906042809 77 270 0.0 0.0 0.00 0.00 0.00 97 1014.7
20260906042308 77 249 0.0 0.0 0.00 0.00 0.00 97 1014.4
20260906041803 77 258 0.0 0.0 0.00 0.00 0.00 97 1014.7
20260906041259 77 260 0.0 0.0 0.00 0.00 0.00 97 1014.8
20260906040754 77 247 0.0 0.0 0.00 0.00 0.00 96 1014.7
20260906040249 77 247 0.0 0.0 0.00 0.00 0.00 96 1014.4
20260906035744 77 251 0.0 0.0 0.00 0.00 0.00 96 1014.6
20260906035240 77 252 0.0 0.0 0.00 0.00 0.00 96 1014.6
20260906034740 77 250 0.0 0.0 0.00 0.00 0.00 95 1014.4
20260906034235 78 238 0.0 0.0 0.00 0.00 0.00 95 1014.4
20260906033731 78 244 0.0 0.0 0.00 0.00 0.00 94 1014.5
20260906033230 78 245 0.0 0.0 0.00 0.00 0.00 94 1014.4
20260906032727 78 262 0.0 0.0 0.00 0.00 0.00 94 1014.4
20260906032227 78 262 0.0 0.0 0.00 0.00 0.00 93 1014.2
20260906031722 78 262 0.0 0.0 0.00 0.00 0.00 93 1014.3
20260906031218 78 263 0.0 0.0 0.00 0.00 0.00 93 1014.3
20260906030717 78 262 0.0 0.0 0.00 0.00 0.00 93 1014.2
20260906030212 78 254 0.0 0.0 0.00 0.00 0.00 92 1014.3
20260906025712 78 258 0.0 0.0 0.00 0.00 0.00 92 1014.2
20260906025206 79 258 0.0 0.0 0.00 0.00 0.00 92 1014.4
20260906024700 78 314 0.0 0.0 0.00 0.00 0.00 92 1014.1
20260906024159 78 257 0.0 0.0 0.00 0.00 0.00 91 1013.9
20260906023655 78 257 0.0 0.0 0.00 0.00 0.00 91 1014.2
20260906023155 79 248 0.0 0.0 0.00 0.00 0.00 90 1013.9
20260906022650 79 246 0.0 0.0 0.00 0.00 0.00 90 1013.8
20260906022146 79 250 0.0 0.0 0.00 0.00 0.00 90 1014.0
20260906021642 79 249 0.0 0.0 0.00 0.00 0.00 90 1013.9
20260906021140 79 246 0.0 0.0 0.00 0.00 0.00 89 1014.0
20260906020635 79 252 0.0 0.0 0.00 0.00 0.00 89 1013.8
20260906020130 79 254 0.0 0.0 0.00 0.00 0.00 88 1013.9
20260906015624 80 254 0.0 0.0 0.00 0.00 0.00 88 1013.8
20260906015122 80 253 0.0 0.0 0.00 0.00 0.00 88 1013.9
20260906014617 80 253 0.0 0.0 0.00 0.00 0.00 88 1013.7
20260906014114 80 254 0.0 0.0 0.00 0.00 0.00 87 1013.8
20260906013609 80 251 0.0 0.0 0.00 0.00 0.00 87 1013.7
20260906013104 81 249 0.0 0.0 0.00 0.00 0.00 86 1013.6
20260906012559 81 249 0.0 0.0 0.00 0.00 0.00 86 1013.5
20260906012059 82 242 0.0 0.0 0.00 0.00 0.00 85 1013.7
20260906011555 82 294 0.0 0.0 0.00 0.00 0.00 85 1013.4
20260906011049 82 246 0.0 0.0 0.00 0.00 0.00 84 1013.5
20260906010545 82 230 0.0 0.0 0.00 0.00 0.00 84 1013.6
20260906010041 82 253 0.0 0.0 0.00 0.00 0.00 81 1013.6
20260906005540 83 266 0.0 0.0 0.00 0.00 0.00 81 1013.3
20260906005039 83 269 0.0 0.0 0.00 0.00 0.00 81 1013.2
20260906004539 83 252 0.0 0.0 0.00 0.00 0.00 80 1013.4
20260906004034 84 235 0.0 0.0 0.00 0.00 0.00 79 1013.3
20260906003529 85 245 0.0 0.0 0.00 0.00 0.00 78 1013.1
20260906003025 86 240 0.0 0.0 0.00 0.00 0.00 75 1013.0
20260906002519 87 254 0.0 0.0 0.00 0.00 0.00 74 1013.2
20260906002014 87 247 0.0 0.0 0.00 0.00 0.00 71 1013.3
20260906001510 88 245 0.0 0.0 0.00 0.00 0.00 71 1013.4
20260906001004 89 252 0.0 0.0 0.00 0.00 0.00 68 1013.3
20260906000500 90 252 0.0 0.0 0.00 0.00 0.00 67 1013.5
20260906000000 91 252 0.0 0.0 0.00 0.00 0.00 66 1013.6
20260905235454 92 253 0.0 0.0 0.00 0.00 0.00 63 1013.7
20260905234949 93 252 0.0 0.0 0.00 0.00 0.00 61 1013.6
20260905234444 93 249 0.0 0.0 0.00 0.00 0.00 60 1013.5
20260905233938 94 295 0.0 0.0 0.00 0.00 0.00 58 1013.8
20260905233434 93 307 0.0 0.0 0.00 0.00 0.00 59 1013.5
20260905232933 93 280 0.0 0.0 0.00 0.00 0.00 58 1013.7
20260905232429 93 306 0.9 0.9 0.00 0.00 0.00 58 1013.6
20260905231925 93 311 0.9 1.7 0.00 0.00 0.00 59 1014.0
20260905231421 93 271 0.0 0.0 0.00 0.00 0.00 58 1013.8
20260905230917 93 271 0.9 1.7 0.00 0.00 0.00 59 1013.7
20260905230415 93 300 0.0 0.9 0.00 0.00 0.00 60 1013.6
20260905225914 93 264 0.0 0.9 0.00 0.00 0.00 60 1013.6
20260905225409 93 254 0.0 0.0 0.00 0.00 0.00 62 1013.5
20260905224904 92 280 0.0 0.0 0.00 0.00 0.00 60 1013.8
20260905224400 92 242 0.0 0.0 0.00 0.00 0.00 63 1013.5
20260905223854 91 271 0.0 0.9 0.00 0.00 0.00 61 1013.4
20260905223351 90 268 0.0 0.0 0.00 0.00 0.00 63 1013.4
20260905222846 90 257 0.0 0.0 0.00 0.00 0.00 64 1013.4
20260905222345 90 249 0.0 0.0 0.00 0.00 0.00 64 1013.5
20260905221841 90 295 0.0 0.0 0.00 0.00 0.00 63 1013.7
20260905221337 91 254 0.0 0.0 0.00 0.00 0.00 64 1013.6
20260905220833 90 263 0.0 0.0 0.00 0.00 0.00 63 1013.7
20260905220329 90 280 0.0 0.0 0.00 0.00 0.00 63 1014.0
20260905215828 91 259 0.0 0.0 0.00 0.00 0.00 63 1014.3
20260905215324 91 259 0.0 0.0 0.00 0.00 0.00 68 1014.1
20260905214821 92 254 0.0 0.0 0.00 0.00 0.00 73 1013.9
20260905214315 93 247 0.0 0.0 0.00 0.00 0.00 70 1013.6
20260905213810 93 246 0.0 0.0 0.00 0.00 0.00 70 1013.7
20260905213307 94 253 0.0 0.0 0.00 0.00 0.00 69 1013.8
20260905212801 94 270 0.0 0.0 0.00 0.00 0.00 66 1013.6
20260905212301 95 247 0.0 0.0 0.00 0.00 0.00 66 1013.8
20260905211756 95 256 0.0 0.0 0.00 0.00 0.00 65 1013.9
20260905211250 95 247 0.0 0.0 0.00 0.00 0.00 64 1014.0
20260905210747 95 247 0.0 0.0 0.00 0.00 0.00 63 1013.5
20260905210247 96 238 0.0 0.0 0.00 0.00 0.00 62 1013.6
20260905205745 95 236 0.0 0.0 0.00 0.00 0.00 64 1013.9
20260905205241 95 240 0.0 0.0 0.00 0.00 0.00 61 1014.0
20260905204740 96 244 0.0 0.0 0.00 0.00 0.00 63 1014.1
20260905204236 96 243 0.0 0.0 0.00 0.00 0.00 62 1013.9
20260905203735 96 267 0.0 0.0 0.00 0.00 0.00 60 1013.9
20260905203231 96 251 0.0 0.0 0.00 0.00 0.00 59 1014.1
20260905202726 96 246 0.0 0.0 0.00 0.00 0.00 59 1014.0
20260905202221 97 242 0.0 0.0 0.00 0.00 0.00 59 1014.0
20260905201716 98 243 0.0 0.0 0.00 0.00 0.00 57 1013.9
20260905201211 98 253 0.0 0.0 0.00 0.00 0.00 57 1014.1
20260905200706 98 226 0.0 0.0 0.00 0.00 0.00 55 1014.2
20260905200202 99 253 0.0 0.0 0.00 0.00 0.00 55 1014.1
20260905195155 99 266 0.0 0.0 0.00 0.00 0.00 52 1014.3
20260905194650 99 223 0.0 0.0 0.00 0.00 0.00 54 1014.4
20260905194149 100 236 0.0 0.0 0.00 0.00 0.00 52 1014.6
20260905193644 100 191 0.0 0.0 0.00 0.00 0.00 53 1014.4
20260905193139 102 324 0.0 0.0 0.00 0.00 0.00 51 1014.7
20260905192634 100 219 0.0 0.0 0.00 0.00 0.00 52 1014.6
20260905192131 101 340 0.0 0.0 0.00 0.00 0.00 52 1014.9
20260905191630 101 162 0.0 0.0 0.00 0.00 0.00 53 1014.7
20260905191129 100 199 0.0 0.0 0.00 0.00 0.00 51 1014.7
20260905190627 99 155 0.0 0.0 0.00 0.00 0.00 55 1014.7
20260905190127 100 200 0.0 0.0 0.00 0.00 0.00 54 1014.8
20260905185626 101 214 0.0 0.0 0.00 0.00 0.00 51 1014.9
20260905185120 101 192 0.0 0.0 0.00 0.00 0.00 51 1015.1
20260905184615 101 220 0.0 0.0 0.00 0.00 0.00 51 1015.1
20260905184114 101 230 0.0 0.0 0.00 0.00 0.00 53 1015.3
20260905183613 101 24 0.0 0.0 0.00 0.00 0.00 53 1015.1
20260905183109 100 276 0.0 0.0 0.00 0.00 0.00 54 1015.2
20260905182608 99 256 0.0 0.0 0.00 0.00 0.00 53 1015.3
20260905182103 99 202 0.0 0.0 0.00 0.00 0.00 53 1015.2
20260905181602 99 329 0.0 0.0 0.00 0.00 0.00 54 1015.3
20260905181102 99 321 0.0 0.0 0.00 0.00 0.00 55 1015.3
20260905180556 99 133 0.0 0.0 0.00 0.00 0.00 53 1015.5
20260905180052 98 249 0.0 0.0 0.00 0.00 0.00 54 1015.6
20260905175551 98 309 0.0 0.0 0.00 0.00 0.00 53 1015.6
20260905175047 98 186 0.0 0.0 0.00 0.00 0.00 54 1015.7
20260905174542 97 289 0.0 0.0 0.00 0.00 0.00 54 1015.8
20260905174037 98 276 0.0 0.0 0.00 0.00 0.00 52 1015.7
20260905173534 97 311 0.0 0.0 0.00 0.00 0.00 54 1015.9
20260905173029 97 342 0.0 0.0 0.00 0.00 0.00 55 1015.9
20260905172527 97 286 0.0 0.0 0.00 0.00 0.00 54 1015.9
20260905172023 98 325 0.0 0.0 0.00 0.00 0.00 54 1015.7
20260905171519 97 303 0.0 0.0 0.00 0.00 0.00 56 1015.7
20260905171015 96 12 0.0 0.0 0.00 0.00 0.00 55 1015.7
20260905170512 96 273 0.9 2.6 0.00 0.00 0.00 56 1016.0
20260905170007 96 244 0.0 0.0 0.00 0.00 0.00 57 1015.9
20260905165501 97 283 0.0 0.0 0.00 0.00 0.00 57 1016.1
20260905164956 97 302 0.0 0.9 0.00 0.00 0.00 57 1016.0
20260905164455 96 261 0.0 0.0 0.00 0.00 0.00 58 1016.3
20260905163950 96 293 0.0 0.9 0.00 0.00 0.00 58 1016.2
20260905163447 96 271 0.0 0.0 0.00 0.00 0.00 59 1016.2
20260905162943 96 259 0.0 0.0 0.00 0.00 0.00 60 1015.9
20260905162438 96 295 0.0 0.0 0.00 0.00 0.00 60 1016.3
20260905161933 95 272 0.0 0.0 0.00 0.00 0.00 61 1016.1
20260905161432 95 269 0.0 0.0 0.00 0.00 0.00 61 1016.3
20260905160930 95 250 0.0 0.0 0.00 0.00 0.00 62 1016.3
20260905160425 94 246 0.0 0.0 0.00 0.00 0.00 63 1016.2
20260905155918 95 306 0.0 0.0 0.00 0.00 0.00 63 1016.2
20260905155418 94 296 0.0 0.0 0.00 0.00 0.00 64 1016.2
20260905154917 93 239 0.0 0.0 0.00 0.00 0.00 65 1016.5
20260905154413 93 306 0.0 0.0 0.00 0.00 0.00 66 1016.3
20260905153909 94 277 0.0 0.0 0.00 0.00 0.00 66 1016.5
20260905153405 93 279 0.0 0.0 0.00 0.00 0.00 65 1016.5
20260905152904 93 25 0.0 0.0 0.00 0.00 0.00 67 1016.2
20260905152403 92 253 0.0 0.0 0.00 0.00 0.00 67 1016.2
20260905151859 92 265 0.0 0.0 0.00 0.00 0.00 66 1016.3
20260905151354 92 279 0.0 0.0 0.00 0.00 0.00 65 1016.1
20260905150849 92 247 0.0 0.0 0.00 0.00 0.00 69 1016.2
20260905150343 91 296 0.0 0.0 0.00 0.00 0.00 69 1016.2
20260905145841 91 306 0.0 0.0 0.00 0.00 0.00 71 1016.1
20260905145340 91 270 0.0 0.0 0.00 0.00 0.00 71 1016.1
20260905144839 90 252 0.0 0.0 0.00 0.00 0.00 73 1016.0
20260905144335 90 261 0.0 0.0 0.00 0.00 0.00 73 1016.0
20260905143833 89 243 0.0 0.0 0.00 0.00 0.00 75 1016.2
20260905143328 89 278 0.0 0.9 0.00 0.00 0.00 73 1016.2
20260905142828 88 324 0.0 0.0 0.00 0.00 0.00 78 1016.4
20260905142321 87 245 0.0 0.0 0.00 0.00 0.00 79 1016.4
20260905141818 87 241 0.0 0.0 0.00 0.00 0.00 78 1016.4
20260905141313 87 284 0.0 0.0 0.00 0.00 0.00 79 1016.2
20260905140809 87 282 0.0 0.0 0.00 0.00 0.00 78 1016.6
20260905140308 87 296 0.0 0.0 0.00 0.00 0.00 79 1016.4
20260905135807 86 278 0.0 0.0 0.00 0.00 0.00 78 1016.5
20260905135306 85 314 0.0 0.0 0.00 0.00 0.00 79 1016.5